This is the latest recevied weather packets stored in our database for station/object W0CHP-13. If no packets are shown the sender has not sent any weather packets the latest 10 day(s).
| Time | Temp. | Humidity | Pressure | Rain* | Wind** | Luminosity | Snow |
|---|---|---|---|---|---|---|---|
| 1777446018 | 9.44° C | 49% | 1013.6 hPa | 0 mm | - | 0 W/m² | - |
| 1777445416 | 9.44° C | 48% | 1013.5 hPa | 0 mm | - | 0 W/m² | - |
| 1777444819 | 10° C | 48% | 1013.6 hPa | 0 mm | - | 0 W/m² | - |
| 1777444217 | 10° C | 48% | 1013.7 hPa | 0 mm | - | 0 W/m² | - |
| 1777443615 | 10° C | 47% | 1013.7 hPa | 0 mm | - | 0 W/m² | - |
| 1777443017 | 10° C | 47% | 1013.7 hPa | 0 mm | - | 0 W/m² | - |
| 1777442415 | 10° C | 48% | 1013.9 hPa | 0 mm | - | 0 W/m² | - |
| 1777441818 | 10° C | 49% | 1013.7 hPa | 0 mm | - | 0 W/m² | - |
| 1777441216 | 10° C | 47% | 1013.9 hPa | 0 mm | - | 0 W/m² | - |
| 1777440618 | 10° C | 50% | 1013.7 hPa | 0 mm | - | 0 W/m² | - |
| 1777440017 | 10° C | 50% | 1013.7 hPa | 0 mm | - | 0 W/m² | - |
| 1777439415 | 10° C | 52% | 1013.7 hPa | 0 mm | - | 0 W/m² | - |
| 1777438817 | 10° C | 51% | 1013.7 hPa | 0 mm | - | 0 W/m² | - |
| 1777438215 | 10.56° C | 51% | 1013.7 hPa | 0 mm | - | 0 W/m² | - |
| 1777437618 | 10.56° C | 50% | 1013.8 hPa | 0 mm | - | 0 W/m² | - |
| 1777437016 | 10.56° C | 50% | 1013.9 hPa | 0 mm | - | 0 W/m² | - |
| 1777436418 | 10.56° C | 50% | 1013.9 hPa | 0 mm | - | 0 W/m² | - |
| 1777435817 | 11.11° C | 50% | 1013.7 hPa | 0 mm | - | 0 W/m² | - |
| 1777435215 | 11.11° C | 50% | 1013.5 hPa | 0 mm | - | 0 W/m² | - |
| 1777434617 | 11.67° C | 48% | 1013.5 hPa | 0 mm | - | 0 W/m² | - |
| 1777434015 | 11.67° C | 49% | 1013.7 hPa | 0 mm | - | 0 W/m² | - |
| 1777433418 | 11.67° C | 49% | 1013.7 hPa | 0 mm | - | 0 W/m² | - |
| 1777432816 | 11.67° C | 48% | 1013.7 hPa | 0 mm | - | 0 W/m² | - |
| 1777432218 | 12.22° C | 48% | 1014.1 hPa | 0 mm | - | 0 W/m² | - |
| 1777431617 | 12.22° C | 48% | 1014.1 hPa | 0 mm | - | 0 W/m² | - |
* Rain latest hour (hover to see other rain measurements)
** Current wind speed in m/s (hover to see current wind gust speed)